sat.trackr.live / text

‹ back to catalog

IRIDIUM 102

NORAD 41920 · 2017-003D

PAYLOAD ACTIVE UNKNOWN

§ Identity

Operator
Country
US
Launch date
2017-01-14
Launch site
AFWTR
Launch vehicle
Mass (kg)
RCS (m²)
2.63

Purposes: comms

External: N2YO · Heavens-Above · Gunter

§ Orbital elements

Epoch: 2026-09-09T23:10:38.309952Z

Period
100.40 min
Inclination
86.3932°
Eccentricity
0.0002091
Mean motion
14.34217622 rev/d
Perigee alt
776.2 km
Apogee alt
779.2 km
Semi-major
7,155.8 km
B*
5.4446e-6
RAAN
52.9639°
Arg perigee
90.4872°
Mean anomaly
269.6564°
Rev number
50,543

§ Raw data

IRIDIUM 1021 41920U 17003D   26252.96572118  .00000035  00000+0  54446-5 0  99982 41920  86.3932  52.9639 0002091  90.4872 269.6564 14.34217622505432

JSON: /api/v1/satellites/41920 · /tle

For live sub-satellite position, see the globe view (requires WebGL).

§ Visibility from observer

Set your observer location to see the next 7 days of passes ≥ 10°. The values pass through the URL so the page stays shareable.

No JS? Fill the form by hand. The geolocation button needs JavaScript.